Location: Unspecified
(0.0000°N, 0.0000°E)
Time: 01:46:55
(UTC+00:00)

M-CUBED/EXP-1 PRIME - Visible Passes

Search period start: 12 December 2019 00:00
Search period end: 22 December 2019 00:00
Orbit: 429 x 668 km, 101.7° (Epoch: 11 December)

Date Brightness Start Highest point End Pass type
(mag) Time Alt. Az. Time Alt. Az. Time Alt. Az.
12 Dec ? 04:48:56 10° N 04:53:02 74° WNW 04:56:50 10° SSW visible
13 Dec ? 04:44:15 10° NNE 04:48:19 86° ESE 04:52:06 10° SSW visible
14 Dec ? 04:39:37 10° NNE 04:43:36 66° ESE 04:47:18 10° S visible
15 Dec ? 04:35:02 10° NNE 04:38:52 50° ESE 04:42:28 10° S visible
16 Dec ? 04:30:29 10° NE 04:34:08 38° ESE 04:37:34 10° S visible
17 Dec ? 04:26:00 10° NE 04:29:24 29° ESE 04:32:35 10° SSE visible
18 Dec ? 04:21:36 10° NE 04:24:39 23° ESE 04:27:33 10° SSE visible
19 Dec ? 04:17:19 10° ENE 04:19:54 18° ESE 04:22:22 10° SSE visible
20 Dec ? 04:13:13 10° ENE 04:15:08 14° ESE 04:17:01 10° SE visible
21 Dec ? 04:09:44 10° E 04:10:23 10° ESE 04:11:02 10° ESE visible
